Overview Statistics Trail Chart Weather Telemetry Raw packets
 

This is the latest recevied packets stored in our database for station/object TB3ALC-11. If no packets are shown the sender has not sent any packets the latest 24 hours.

If you compare the raw packets with similar data from other websites it may differ (especially the path), the reason is that we are not collecting packets from the same APRS-IS servers. Each APRS-IS server performes duplicate filtering, and which packet that is considered to be a duplicate may differ depending on which APRS-IS server you receive your data from.

<< 1 2 3 4 >>

1788678178: TB3ALC-11>APLIGP,TCPIP*,qAC,T2LAUSITZ:!4010.08NL02904.86E& LoRa APRS iGate by TA2MUN & TA3YNS

1788677930: TB3ALC-11>APLIGP,TCPIP*,qAC,T2LAUSITZ:!4010.08NL02904.86E& LoRa APRS iGate by TA2MUN & TA3YNS

1788677897: TB3ALC-11>APLIGP,TCPIP*,qAC,T2LAUSITZ:>RX Only LoRa iGate on 433.775MHz Temp: 36.70C, Humid:43.55%

1788676994: TB3ALC-11>APLIGP,TCPIP*,qAC,T2UK:>RX Only LoRa iGate on 433.775MHz Temp: 35.67C, Humid:44.34%

1788676729: TB3ALC-11>APLIGP,TCPIP*,qAC,T2UK:!4010.08NL02904.86E& LoRa APRS iGate by TA2MUN & TA3YNS

1788676095: TB3ALC-11>APLIGP,TCPIP*,qAC,T2UK:>RX Only LoRa iGate on 433.775MHz Temp: 35.14C, Humid:44.58%

1788675434: TB3ALC-11>APLIGP,TCPIP*,qAC,T2PRT:>RX Only LoRa iGate on 433.775MHz Temp: 33.46C, Humid:45.63%

1788675192: TB3ALC-11>APLIGP,TCPIP*,qAC,T2PRT:>RX Only LoRa iGate on 433.775MHz Temp: 33.46C, Humid:45.63%

1788674572: TB3ALC-11>APLIGP,TCPIP*,qAC,T2PRT:!4010.08NL02904.86E& LoRa APRS iGate by TA2MUN & TA3YNS

1788674328: TB3ALC-11>APLIGP,TCPIP*,qAC,T2PRT:!4010.08NL02904.86E& LoRa APRS iGate by TA2MUN & TA3YNS

1788674053: TB3ALC-11>APLIGP,TCPIP*,qAC,T2PRT:>RX Only LoRa iGate on 433.775MHz Temp: 32.41C, Humid:45.43%

1788673797: TB3ALC-11>APLIGP,TCPIP*,qAC,T2PRT:!4010.08NL02904.86E& LoRa APRS iGate by TA2MUN & TA3YNS

1788673152: TB3ALC-11>APLIGP,TCPIP*,qAC,T2PRT:>RX Only LoRa iGate on 433.775MHz Temp: 31.38C, Humid:44.67%

1788672251: TB3ALC-11>APLIGP,TCPIP*,qAC,T2CZECH:>RX Only LoRa iGate on 433.775MHz Temp: 29.75C, Humid:45.53%

1788671396: TB3ALC-11>APLIGP,TCPIP*,qAC,T2CZECH:!4010.08NL02904.86E& LoRa APRS iGate by TA2MUN & TA3YNS

1788671351: TB3ALC-11>APLIGP,TCPIP*,qAC,T2CZECH:>RX Only LoRa iGate on 433.775MHz Temp: 28.21C, Humid:46.21%

1788670449: TB3ALC-11>APLIGP,TCPIP*,qAC,T2UKRAINE:>RX Only LoRa iGate on 433.775MHz Temp: 26.57C, Humid:46.85%

1788670196: TB3ALC-11>APLIGP,TCPIP*,qAC,T2UKRAINE:!4010.08NL02904.86E& LoRa APRS iGate by TA2MUN & TA3YNS

1788669552: TB3ALC-11>APLIGP,TCPIP*,qAC,T2UKRAINE:>RX Only LoRa iGate on 433.775MHz Temp: 24.77C, Humid:48.25%

1788668647: TB3ALC-11>APLIGP,TCPIP*,qAC,T2BIO:>RX Only LoRa iGate on 433.775MHz Temp: 23.17C, Humid:50.12%

1788667795: TB3ALC-11>APLIGP,TCPIP*,qAC,T2BIO:!4010.08NL02904.86E& LoRa APRS iGate by TA2MUN & TA3YNS

1788667404: TB3ALC-11>APLIGP,TCPIP*,qAC,T2UK:!4010.08NL02904.85E& LoRa APRS iGate by TA2MUN & TA3YNS

1788667349: TB3ALC-11>APLIGP,TCPIP*,qAC,T2UK:>RX Only LoRa iGate on 433.775MHz Temp: 22.15C, Humid:51.24%

1788666447: TB3ALC-11>APLIGP,TCPIP*,qAC,T2UKRAINE:>RX Only LoRa iGate on 433.775MHz Temp: 21.53C, Humid:52.81%

1788666203: TB3ALC-11>APLIGP,TCPIP*,qAC,T2UKRAINE:!4010.08NL02904.85E& LoRa APRS iGate by TA2MUN & TA3YNS